PEGASUS DEB, 24594

Orbit data source: Space-Track

PEGASUS DEB, 24594 is space debris in LEO originally from a launch on Thu, 19 May 1994 UTC launched from the Air Force Western Test Range (AFWTR). Debris objects in space refer to the collection of defunct objects orbiting the Earth. Examples of debris include non-operational satellites, rocket bodies, and fragments generated from explosions, collisions, or faulty payload assembly.

Loading next visibility...
Identifier
24594, 1994-029YW
Orbit
LEO
Country
Flag of USUS
Related business
Manufacturer
Unknown
Mission
Spacecraft
Bus & Motor
Unknown
Mass
Unknown
Launch date (UTC)
1994-05-19 (32 years ago)
Launch vehicle
Unknown
Launch site
Air Force Western Test Range (AFWTR)
Object type
Payload
Rocket body
Debris
Shape & HBR
Unknown shape, 0.1 m
Radar Cross Section
Medium (>0.1 m² and <1 m²)

Expand to show TLE details & history
Last TLE update: 2 days ago

TLE from 2 days ago
0 PEGASUS DEB
1 24594U 94029YW  26176.94490850  .00002056  00000-0  42619-3 0  9997
2 24594  81.4474 348.7036 0445907 297.9801  57.6920 14.12367344508883
Epoch: 2026-06-25T22:40Z
TLE epoch observation values (Epoch: 2026-06-25T22:40:40.094Z)
Latitude
-0.00005°
Longitude
94.45604°
Altitude
692.514 km
Speed
7.593 km/s
True Right ascension
23h 14m 48s
True Declination
0° 00' 00"
Sunlit
Object was in daylight at epoch
Visualization orbit readout
Latitude
Unknown
Longitude
Unknown
Altitude
Unknown
Speed
Unknown
Apparent Right ascension
Unknown
Apparent Declination
Unknown
Sunlit
N/A
Visualization observer readout
Local Sidereal Time
00:40:35
Azimuth
Unknown
Elevation
Unknown
Doppler factor
Unknown
Orbital elements
Apogee altitude
1,170.673 km
Perigee altitude
526.197 km
Semi-major axis
7,226.572 km
Eccentricity
0.04459
Inclination
81.4474°
RAAN
348.7036°
Arg. of periapsis
297.9801°
True anomaly
62.13862°
Mean anomaly
57.692°
Eccentric anomaly
59.90239°
Mean motion
3.53301 °/min
Orbital period
101.9 mins
BSTAR
0.00042619
Loading maneuver chart data...
Computing Atmospheric mass density...

Documentation

Showing up to 5 results
|